Time,TemperatureF,DewpointF,PressureIn,WindDirection,WindDirectionDegrees,WindSpeedMPH,WindSpeedGustMPH,Humidity,HourlyPrecipIn,Conditions,Clouds,dailyrainin,SolarRadiationWatts/m^2,SoftwareType,DateUTC
2013-06-01 00:01:00,45.8,41.2,30.20,WSW,239,1.0,1.3,84,0.00,CLR,,0.00,0.0,WeatherDisplay:10.37,2013-05-31 23:01:00,
2013-06-01 00:06:00,45.8,41.5,30.20,NNW,332,3.5,3.5,85,0.00,CLR,,0.00,0.0,WeatherDisplay:10.37,2013-05-31 23:06:00,
2013-06-01 00:11:00,45.8,41.5,30.20,NW,323,3.0,3.0,85,0.00,CLR,,0.00,0.0,WeatherDisplay:10.37,2013-05-31 23:11:00,
2013-06-01 00:17:00,45.8,41.5,30.20,NW,325,5.8,5.8,85,0.00,CLR,,0.00,0.0,WeatherDisplay:10.37,2013-05-31 23:17:00,
2013-06-01 00:22:00,45.8,41.5,30.20,SW,230,3.5,3.5,85,0.00,CLR,,0.00,0.0,WeatherDisplay:10.37,2013-05-31 23:22:00,
2013-06-01 00:27:00,45.7,41.4,30.20,NNW,328,3.5,3.5,85,0.00,CLR,,0.00,0.0,WeatherDisplay:10.37,2013-05-31 23:27:00,
2013-06-01 00:32:00,45.7,41.8,30.20,North,0,3.5,3.5,86,0.00,CLR,,0.00,0.0,WeatherDisplay:10.37,2013-05-31 23:32:00,
2013-06-01 00:38:00,45.5,41.6,30.20,NW,311,3.5,3.5,86,0.00,CLR,,0.00,0.0,WeatherDisplay:10.37,2013-05-31 23:38:00,
2013-06-01 00:43:00,45.5,41.6,30.20,North,354,4.6,4.6,86,0.00,CLR,,0.00,0.0,WeatherDisplay:10.37,2013-05-31 23:43:00,
2013-06-01 00:48:00,45.4,41.5,30.20,North,352,2.3,2.3,86,0.00,CLR,,0.00,0.0,WeatherDisplay:10.37,2013-05-31 23:48:00,
2013-06-01 00:53:00,45.4,41.5,30.20,WSW,244,2.0,2.0,86,0.00,CLR,,0.00,0.0,WeatherDisplay:10.37,2013-05-31 23:53:00,
2013-06-01 00:58:00,45.4,41.5,30.20,SW,234,2.3,2.3,86,0.00,CLR,,0.00,0.0,WeatherDisplay:10.37,2013-05-31 23:58:00,
2013-06-01 01:03:00,45.4,41.5,30.20,WNW,291,2.3,2.3,86,0.00,CLR,,0.00,0.0,WeatherDisplay:10.37,2013-06-01 00:03:00,
2013-06-01 01:08:00,45.4,41.5,30.20,NNW,332,5.8,5.8,86,0.00,CLR,,0.00,0.0,WeatherDisplay:10.37,2013-06-01 00:08:00,
2013-06-01 01:13:00,45.4,41.5,30.20,North,0,5.8,5.8,86,0.00,CLR,,0.00,0.0,WeatherDisplay:10.37,2013-06-01 00:13:00,
2013-06-01 01:19:00,45.4,41.8,30.20,NW,315,5.8,5.8,87,0.00,CLR,,0.00,0.0,WeatherDisplay:10.37,2013-06-01 00:19:00,
2013-06-01 01:24:00,45.4,41.8,30.20,NNW,344,3.5,3.5,87,0.00,CLR,,0.00,0.0,WeatherDisplay:10.37,2013-06-01 00:24:00,
2013-06-01 01:29:00,45.2,41.6,30.20,NNW,333,2.3,2.3,87,0.00,CLR,,0.00,0.0,WeatherDisplay:10.37,2013-06-01 00:29:00,
2013-06-01 01:34:00,45.2,41.6,30.20,NNW,342,6.9,6.9,87,0.00,CLR,,0.00,0.0,WeatherDisplay:10.37,2013-06-01 00:34:00,
2013-06-01 01:39:00,45.2,41.3,30.19,NNW,346,3.5,3.5,86,0.00,CLR,,0.00,0.0,WeatherDisplay:10.37,2013-06-01 00:39:00,
2013-06-01 01:44:00,45.1,41.2,30.20,NNW,343,4.0,4.0,86,0.00,CLR,,0.00,0.0,WeatherDisplay:10.37,2013-06-01 00:44:00,
2013-06-01 01:50:00,45.1,41.2,30.20,NNW,343,2.3,2.3,86,0.00,CLR,,0.00,0.0,WeatherDisplay:10.37,2013-06-01 00:50:00,
2013-06-01 01:55:00,45.1,41.2,30.19,NNW,347,4.6,4.6,86,0.00,CLR,,0.00,0.0,WeatherDisplay:10.37,2013-06-01 00:55:00,
2013-06-01 02:00:00,45.1,41.2,30.20,NNW,337,3.5,3.5,86,0.00,CLR,,0.00,0.0,WeatherDisplay:10.37,2013-06-01 01:00:00,
2013-06-01 02:05:00,44.9,41.0,30.19,North,357,6.9,6.9,86,0.00,CLR,,0.00,0.0,WeatherDisplay:10.37,2013-06-01 01:05:00,
2013-06-01 02:10:00,44.9,41.0,30.19,NNW,336,5.8,5.8,86,0.00,CLR,,0.00,0.0,WeatherDisplay:10.37,2013-06-01 01:10:00,
2013-06-01 02:15:00,44.8,40.9,30.19,NNW,338,5.0,8.0,86,0.00,CLR,,0.00,0.0,WeatherDisplay:10.37,2013-06-01 01:15:00,
2013-06-01 02:20:00,44.8,40.9,30.19,NNW,343,6.9,6.9,86,0.00,CLR,,0.00,0.0,WeatherDisplay:10.37,2013-06-01 01:20:00,
2013-06-01 02:25:00,44.6,40.7,30.19,NNW,344,8.1,8.1,86,0.00,CLR,,0.00,0.0,WeatherDisplay:10.37,2013-06-01 01:25:00,
2013-06-01 02:30:00,44.6,40.7,30.19,NNW,329,5.8,5.8,86,0.00,CLR,,0.00,0.0,WeatherDisplay:10.37,2013-06-01 01:30:00,
2013-06-01 02:35:00,44.6,40.7,30.19,NNW,332,9.2,9.2,86,0.00,CLR,,0.00,0.0,WeatherDisplay:10.37,2013-06-01 01:35:00,
2013-06-01 02:40:00,44.5,40.6,30.19,NNW,339,3.5,3.5,86,0.00,CLR,,0.00,0.0,WeatherDisplay:10.37,2013-06-01 01:40:00,
2013-06-01 02:45:00,44.5,40.6,30.19,NNW,340,4.6,4.6,86,0.00,CLR,,0.00,0.0,WeatherDisplay:10.37,2013-06-01 01:45:00,
2013-06-01 02:50:00,44.6,40.7,30.19,NNW,339,10.4,10.4,86,0.00,CLR,,0.00,0.0,WeatherDisplay:10.37,2013-06-01 01:50:00,
2013-06-01 02:55:00,44.8,40.9,30.19,NNW,335,4.6,4.6,86,0.00,CLR,,0.00,0.0,WeatherDisplay:10.37,2013-06-01 01:55:00,
2013-06-01 03:01:00,44.9,41.0,30.19,North,356,3.5,3.5,86,0.00,CLR,,0.00,0.0,WeatherDisplay:10.37,2013-06-01 02:01:00,
2013-06-01 03:06:00,44.9,41.0,30.19,NNW,337,6.9,6.9,86,0.00,CLR,,0.00,0.0,WeatherDisplay:10.37,2013-06-01 02:06:00,
2013-06-01 03:11:00,44.9,41.0,30.19,NNW,340,4.6,4.6,86,0.00,CLR,,0.00,0.0,WeatherDisplay:10.37,2013-06-01 02:11:00,
2013-06-01 03:16:00,44.8,41.2,30.19,North,352,4.6,4.6,87,0.00,CLR,,0.00,0.0,WeatherDisplay:10.37,2013-06-01 02:16:00,
2013-06-01 03:21:00,44.8,41.2,30.19,NNW,342,3.5,3.5,87,0.00,CLR,,0.00,0.0,WeatherDisplay:10.37,2013-06-01 02:21:00,
2013-06-01 03:27:00,44.8,41.2,30.19,NNW,337,4.6,4.6,87,0.00,CLR,,0.00,0.0,WeatherDisplay:10.37,2013-06-01 02:27:00,
2013-06-01 03:32:00,44.6,41.3,30.20,NNW,333,2.3,2.3,88,0.00,CLR,,0.00,0.0,WeatherDisplay:10.37,2013-06-01 02:32:00,
2013-06-01 03:37:00,44.6,41.3,30.20,NW,326,3.5,0.0,88,0.00,CLR,,0.00,0.0,WeatherDisplay:10.37,2013-06-01 02:37:00,
2013-06-01 03:42:00,44.5,41.2,30.20,NNW,330,0.0,0.0,88,0.00,CLR,,0.00,0.0,WeatherDisplay:10.37,2013-06-01 02:42:00,
2013-06-01 03:47:00,44.3,41.0,30.20,NNW,333,2.0,0.0,88,0.00,CLR,,0.00,0.0,WeatherDisplay:10.37,2013-06-01 02:47:00,
2013-06-01 03:53:00,44.1,40.8,30.21,NNW,335,1.2,1.2,88,0.00,CLR,,0.00,0.0,WeatherDisplay:10.37,2013-06-01 02:53:00,
2013-06-01 03:58:00,43.9,40.6,30.21,NNW,337,0.0,0.0,88,0.00,CLR,,0.00,0.0,WeatherDisplay:10.37,2013-06-01 02:58:00,
2013-06-01 04:03:00,43.6,40.3,30.20,NW,326,0.0,0.0,88,0.00,CLR,,0.00,0.0,WeatherDisplay:10.37,2013-06-01 03:03:00,
2013-06-01 04:08:00,43.5,40.2,30.20,NNW,329,0.0,0.0,88,0.00,CLR,,0.00,0.0,WeatherDisplay:10.37,2013-06-01 03:08:00,
2013-06-01 04:13:00,43.2,40.2,30.20,NNW,328,0.0,0.0,89,0.00,OVC,,0.00,0.0,WeatherDisplay:10.37,2013-06-01 03:13:00,
2013-06-01 04:18:00,43.1,40.1,30.20,NNW,332,2.3,2.3,89,0.00,OVC,,0.00,0.0,WeatherDisplay:10.37,2013-06-01 03:18:00,
2013-06-01 04:23:00,43.1,40.1,30.20,NNW,330,2.3,2.3,89,0.00,OVC,,0.00,0.0,WeatherDisplay:10.37,2013-06-01 03:23:00,
2013-06-01 04:28:00,42.9,39.9,30.20,NNW,329,0.0,0.0,89,0.00,OVC,,0.00,5.0,WeatherDisplay:10.37,2013-06-01 03:28:00,
2013-06-01 04:33:00,42.9,40.2,30.20,NNW,335,3.5,3.5,90,0.00,OVC,,0.00,5.0,WeatherDisplay:10.37,2013-06-01 03:33:00,
2013-06-01 04:39:00,43.1,40.4,30.20,NNW,329,2.3,2.3,90,0.00,OVC,,0.00,5.0,WeatherDisplay:10.37,2013-06-01 03:39:00,
2013-06-01 04:44:00,42.9,40.2,30.20,NNW,329,0.0,0.0,90,0.00,OVC,,0.00,7.0,WeatherDisplay:10.37,2013-06-01 03:44:00,
2013-06-01 04:49:00,42.9,40.2,30.20,NNW,335,0.0,0.0,90,0.00,OVC,,0.00,11.0,WeatherDisplay:10.37,2013-06-01 03:49:00,
2013-06-01 04:54:00,42.9,40.2,30.20,NNW,337,0.0,0.0,90,0.00,OVC,,0.00,12.0,WeatherDisplay:10.37,2013-06-01 03:54:00,
2013-06-01 04:59:00,42.8,40.1,30.20,NNW,329,0.0,0.0,90,0.00,OVC,,0.00,14.0,WeatherDisplay:10.37,2013-06-01 03:59:00,
2013-06-01 05:01:00,42.8,40.1,30.20,NNW,333,0.0,0.3,90,0.00,OVC,,0.00,14.0,WeatherDisplay:10.37,2013-06-01 04:01:00,
2013-06-01 05:02:00,42.8,40.1,30.20,NNW,336,1.2,0.0,90,0.00,OVC,,0.00,16.0,WeatherDisplay:10.37,2013-06-01 04:02:00,
2013-06-01 05:07:00,42.6,40.2,30.21,NNW,332,0.0,0.0,91,0.00,OVC,,0.00,19.0,WeatherDisplay:10.37,2013-06-01 04:07:00,
2013-06-01 05:12:00,42.6,40.2,30.21,NW,325,3.5,3.5,91,0.00,OVC,,0.00,23.0,WeatherDisplay:10.37,2013-06-01 04:12:00,
2013-06-01 05:17:00,42.6,40.2,30.21,NNW,328,0.0,0.0,91,0.00,OVC,,0.00,25.0,WeatherDisplay:10.37,2013-06-01 04:17:00,
2013-06-01 05:23:00,42.6,40.2,30.21,NW,325,2.3,2.3,91,0.00,CLR,,0.00,26.0,WeatherDisplay:10.37,2013-06-01 04:23:00,
2013-06-01 05:28:00,42.6,40.2,30.21,NNW,328,2.3,2.3,91,0.00,CLR,,0.00,26.0,WeatherDisplay:10.37,2013-06-01 04:28:00,
2013-06-01 05:33:00,42.8,40.6,30.21,NW,322,1.2,1.2,92,0.00,CLR,,0.00,26.0,WeatherDisplay:10.37,2013-06-01 04:33:00,
2013-06-01 05:38:00,42.9,40.7,30.21,NW,311,3.5,3.5,92,0.00,CLR,,0.00,26.0,WeatherDisplay:10.37,2013-06-01 04:38:00,
2013-06-01 05:43:00,43.2,41.0,30.21,NW,318,3.5,3.5,92,0.00,FEW,,0.00,28.0,WeatherDisplay:10.37,2013-06-01 04:43:00,
2013-06-01 05:48:00,43.3,41.1,30.21,NNW,332,3.5,3.5,92,0.00,FEW,,0.00,30.0,WeatherDisplay:10.37,2013-06-01 04:48:00,
2013-06-01 05:53:00,43.5,41.3,30.21,NW,325,0.0,0.0,92,0.00,SCT,,0.00,30.0,WeatherDisplay:10.37,2013-06-01 04:53:00,
2013-06-01 05:58:00,43.5,41.3,30.21,NNW,329,0.0,0.0,92,0.00,SCT,,0.00,32.0,WeatherDisplay:10.37,2013-06-01 04:58:00,
2013-06-01 06:04:00,43.5,41.3,30.21,NNW,335,0.0,0.0,92,0.00,BKN,,0.00,32.0,WeatherDisplay:10.37,2013-06-01 05:04:00,
2013-06-01 06:09:00,43.5,41.0,30.21,NNW,333,1.2,0.0,91,0.00,BKN,,0.00,35.0,WeatherDisplay:10.37,2013-06-01 05:09:00,
2013-06-01 06:14:00,43.5,41.0,30.21,NW,322,0.0,0.0,91,0.00,BKN,,0.00,35.0,WeatherDisplay:10.37,2013-06-01 05:14:00,
2013-06-01 06:19:00,43.5,41.3,30.21,NNW,337,1.2,1.2,92,0.00,BKN,,0.00,37.0,WeatherDisplay:10.37,2013-06-01 05:19:00,
2013-06-01 06:24:00,43.8,41.6,30.21,SW,217,2.3,0.0,92,0.00,CLR,,0.00,148.0,WeatherDisplay:10.37,2013-06-01 05:24:00,
2013-06-01 06:29:00,44.1,41.9,30.21,NNW,347,3.5,3.5,92,0.00,CLR,,0.00,157.0,WeatherDisplay:10.37,2013-06-01 05:29:00,
2013-06-01 06:34:00,44.5,42.3,30.21,NNW,328,2.3,2.3,92,0.00,CLR,,0.00,169.0,WeatherDisplay:10.37,2013-06-01 05:34:00,
2013-06-01 06:39:00,44.8,42.6,30.21,WSW,247,2.3,2.3,92,0.00,CLR,,0.00,183.0,WeatherDisplay:10.37,2013-06-01 05:39:00,
2013-06-01 06:45:00,44.9,42.7,30.21,NNW,337,0.0,0.0,92,0.00,CLR,,0.00,195.0,WeatherDisplay:10.37,2013-06-01 05:45:00,
2013-06-01 06:50:00,45.4,43.2,30.21,NW,304,5.0,5.0,92,0.00,CLR,,0.00,202.0,WeatherDisplay:10.37,2013-06-01 05:50:00,
2013-06-01 06:55:00,45.8,43.6,30.21,NW,326,5.8,5.8,92,0.00,CLR,,0.00,208.0,WeatherDisplay:10.37,2013-06-01 05:55:00,
2013-06-01 07:00:00,46.1,43.6,30.21,NW,326,0.0,6.0,91,0.00,CLR,,0.00,209.0,WeatherDisplay:10.37,2013-06-01 06:00:00,
2013-06-01 07:05:00,46.4,43.9,30.21,NNW,332,2.3,0.0,91,0.00,CLR,,0.00,227.0,WeatherDisplay:10.37,2013-06-01 06:05:00,
2013-06-01 07:10:00,46.7,44.2,30.21,NW,306,1.2,1.2,91,0.00,CLR,,0.00,239.0,WeatherDisplay:10.37,2013-06-01 06:10:00,
2013-06-01 07:15:00,46.8,44.3,30.21,NW,318,2.3,0.0,91,0.00,CLR,,0.00,250.0,WeatherDisplay:10.37,2013-06-01 06:15:00,
2013-06-01 07:20:00,47.0,44.5,30.22,NW,318,4.6,4.6,91,0.00,CLR,,0.00,260.0,WeatherDisplay:10.37,2013-06-01 06:20:00,
2013-06-01 07:25:00,47.1,44.6,30.22,NW,312,1.2,1.2,91,0.00,CLR,,0.00,273.0,WeatherDisplay:10.37,2013-06-01 06:25:00,
2013-06-01 07:30:00,47.4,44.6,30.22,WSW,239,3.5,3.5,90,0.00,CLR,,0.00,287.0,WeatherDisplay:10.37,2013-06-01 06:30:00,
2013-06-01 07:36:00,47.7,44.9,30.22,North,352,2.3,2.3,90,0.00,CLR,,0.00,297.0,WeatherDisplay:10.37,2013-06-01 06:36:00,
2013-06-01 07:41:00,48.2,45.4,30.22,NW,309,3.5,3.5,90,0.00,CLR,,0.00,311.0,WeatherDisplay:10.37,2013-06-01 06:41:00,
2013-06-01 07:46:00,48.6,45.5,30.22,North,354,3.0,3.0,89,0.00,CLR,,0.00,326.0,WeatherDisplay:10.37,2013-06-01 06:46:00,
2013-06-01 07:51:00,48.9,45.5,30.22,WSW,243,1.2,1.2,88,0.00,CLR,,0.00,341.0,WeatherDisplay:10.37,2013-06-01 06:51:00,
2013-06-01 07:56:00,49.5,45.8,30.22,WSW,237,7.0,7.0,87,0.00,CLR,,0.00,359.0,WeatherDisplay:10.37,2013-06-01 06:56:00,
2013-06-01 08:01:00,49.9,45.9,30.22,WNW,296,3.0,3.0,86,0.00,CLR,,0.00,380.0,WeatherDisplay:10.37,2013-06-01 07:01:00,
2013-06-01 08:06:00,50.4,45.7,30.23,NNW,330,4.6,4.6,84,0.00,CLR,,0.00,417.0,WeatherDisplay:10.37,2013-06-01 07:06:00,
2013-06-01 08:11:00,51.0,45.7,30.22,NNW,343,6.0,6.0,82,0.00,CLR,,0.00,494.0,WeatherDisplay:10.37,2013-06-01 07:11:00,
2013-06-01 08:17:00,51.7,45.1,30.22,NW,313,7.0,7.0,78,0.00,CLR,,0.00,398.0,WeatherDisplay:10.37,2013-06-01 07:17:00,
2013-06-01 08:22:00,51.9,45.6,30.22,NW,315,3.5,3.5,79,0.00,FEW,,0.00,308.0,WeatherDisplay:10.37,2013-06-01 07:22:00,
2013-06-01 08:27:00,51.7,45.4,30.22,NW,313,3.5,3.5,79,0.00,CLR,,0.00,354.0,WeatherDisplay:10.37,2013-06-01 07:27:00,
2013-06-01 08:32:00,51.7,45.7,30.22,North,349,4.6,4.6,80,0.00,SCT,,0.00,234.0,WeatherDisplay:10.37,2013-06-01 07:32:00,
2013-06-01 08:37:00,51.7,45.1,30.23,NNW,337,5.8,5.8,78,0.00,SCT,,0.00,278.0,WeatherDisplay:10.37,2013-06-01 07:37:00,
2013-06-01 08:43:00,51.9,45.6,30.23,North,357,3.5,3.5,79,0.00,CLR,,0.00,433.0,WeatherDisplay:10.37,2013-06-01 07:43:00,
2013-06-01 08:48:00,51.9,45.3,30.23,North,356,5.0,5.0,78,0.00,BKN,,0.00,190.0,WeatherDisplay:10.37,2013-06-01 07:48:00,
2013-06-01 08:53:00,52.2,45.2,30.23,NW,318,8.1,8.1,77,0.00,FEW,,0.00,616.0,WeatherDisplay:10.37,2013-06-01 07:53:00,
2013-06-01 08:58:00,52.9,44.8,30.23,NNW,337,4.6,4.6,74,0.00,SCT,,0.00,276.0,WeatherDisplay:10.37,2013-06-01 07:58:00,
2013-06-01 09:03:00,53.1,45.0,30.23,North,357,3.5,3.5,74,0.00,SCT,,0.00,290.0,WeatherDisplay:10.37,2013-06-01 08:03:00,
2013-06-01 09:08:00,52.8,44.0,30.23,NNW,337,6.0,6.0,72,0.00,BKN,,0.00,230.0,WeatherDisplay:10.37,2013-06-01 08:08:00,
2013-06-01 09:13:00,52.5,43.7,30.23,NNW,336,5.8,5.8,72,0.00,SCT,,0.00,350.0,WeatherDisplay:10.37,2013-06-01 08:13:00,
2013-06-01 09:19:00,52.5,44.1,30.23,NW,322,5.8,5.8,73,0.00,SCT,,0.00,326.0,WeatherDisplay:10.37,2013-06-01 08:19:00,
2013-06-01 09:24:00,52.5,43.7,30.23,North,357,6.9,6.9,72,0.00,FEW,,0.00,371.0,WeatherDisplay:10.37,2013-06-01 08:24:00,
2013-06-01 09:29:00,52.8,44.0,30.23,SW,234,4.6,4.6,72,0.00,BKN,,0.00,273.0,WeatherDisplay:10.37,2013-06-01 08:29:00,
2013-06-01 09:34:00,52.6,44.5,30.23,SW,227,2.3,2.3,74,0.00,BKN,,0.00,238.0,WeatherDisplay:10.37,2013-06-01 08:34:00,
2013-06-01 09:39:00,52.6,44.2,30.23,North,357,3.5,3.5,73,0.00,SCT,,0.00,301.0,WeatherDisplay:10.37,2013-06-01 08:39:00,
2013-06-01 09:44:00,52.9,44.1,30.22,WSW,243,5.8,5.8,72,0.00,SCT,,0.00,343.0,WeatherDisplay:10.37,2013-06-01 08:44:00,
2013-06-01 09:49:00,52.8,44.0,30.22,NNW,335,3.5,3.5,72,0.00,OVC,,0.00,164.0,WeatherDisplay:10.37,2013-06-01 08:49:00,
2013-06-01 09:55:00,52.8,45.1,30.22,North,357,3.5,3.5,75,0.00,OVC,,0.00,208.0,WeatherDisplay:10.37,2013-06-01 08:55:00,
2013-06-01 10:00:00,53.8,45.0,30.22,NW,325,3.5,3.5,72,0.00,OVC,,0.00,208.0,WeatherDisplay:10.37,2013-06-01 09:00:00,
2013-06-01 10:05:00,54.7,45.8,30.22,NW,319,6.9,6.9,72,0.00,CLR,,0.00,764.0,WeatherDisplay:10.37,2013-06-01 09:05:00,
2013-06-01 10:10:00,54.4,45.6,30.22,NW,320,5.8,5.8,72,0.00,BKN,,0.00,267.0,WeatherDisplay:10.37,2013-06-01 09:10:00,
2013-06-01 10:15:00,55.1,45.9,30.22,NNW,330,5.0,5.0,71,0.00,BKN,,0.00,285.0,WeatherDisplay:10.37,2013-06-01 09:15:00,
2013-06-01 10:20:00,54.7,45.5,30.22,NNW,336,6.9,6.9,71,0.00,BKN,,0.00,283.0,WeatherDisplay:10.37,2013-06-01 09:20:00,
2013-06-01 10:25:00,54.4,45.9,30.23,NW,309,2.3,2.3,73,0.00,BKN,,0.00,313.0,WeatherDisplay:10.37,2013-06-01 09:25:00,
2013-06-01 10:30:00,55.1,46.2,30.22,NNW,342,3.5,3.5,72,0.00,CLR,,0.00,649.0,WeatherDisplay:10.37,2013-06-01 09:30:00,
2013-06-01 10:36:00,54.7,45.8,30.22,NNW,339,3.5,3.5,72,0.00,OVC,,0.00,172.0,WeatherDisplay:10.37,2013-06-01 09:36:00,
2013-06-01 10:41:00,53.6,45.5,30.23,North,357,9.2,9.2,74,0.00,BKN,,0.00,294.0,WeatherDisplay:10.37,2013-06-01 09:41:00,
2013-06-01 10:46:00,54.1,46.3,30.22,NW,320,12.0,12.0,75,0.00,BKN,,0.00,294.0,WeatherDisplay:10.37,2013-06-01 09:46:00,
2013-06-01 10:51:00,55.1,46.6,30.22,NW,326,4.0,4.0,73,0.00,CLR,,0.00,1093.0,WeatherDisplay:10.37,2013-06-01 09:51:00,
2013-06-01 10:56:00,55.3,46.4,30.22,North,357,6.9,6.9,72,0.00,BKN,,0.00,378.0,WeatherDisplay:10.37,2013-06-01 09:56:00,
2013-06-01 11:01:00,55.4,45.8,30.22,NNW,330,5.8,5.8,70,0.00,BKN,,0.00,378.0,WeatherDisplay:10.37,2013-06-01 10:01:00,
2013-06-01 11:06:00,55.7,46.4,30.22,NNW,336,4.6,4.6,71,0.00,BKN,,0.00,333.0,WeatherDisplay:10.37,2013-06-01 10:06:00,
2013-06-01 11:11:00,55.4,46.2,30.22,SW,215,3.5,3.5,71,0.00,BKN,,0.00,350.0,WeatherDisplay:10.37,2013-06-01 10:11:00,
2013-06-01 11:17:00,55.3,46.4,30.22,SW,232,5.8,5.8,72,0.00,BKN,,0.00,368.0,WeatherDisplay:10.37,2013-06-01 10:17:00,
2013-06-01 11:22:00,54.7,45.8,30.22,SW,227,5.8,5.8,72,0.00,SCT,,0.00,450.0,WeatherDisplay:10.37,2013-06-01 10:22:00,
2013-06-01 11:27:00,54.8,45.9,30.22,NNW,340,6.9,6.9,72,0.00,BKN,,0.00,415.0,WeatherDisplay:10.37,2013-06-01 10:27:00,
2013-06-01 11:32:00,54.8,45.9,30.22,NW,325,11.5,11.5,72,0.00,BKN,,0.00,317.0,WeatherDisplay:10.37,2013-06-01 10:32:00,
2013-06-01 11:37:00,54.7,46.2,30.22,North,357,6.9,6.9,73,0.00,BKN,,0.00,387.0,WeatherDisplay:10.37,2013-06-01 10:37:00,
2013-06-01 11:42:00,55.3,46.4,30.22,North,356,3.0,3.0,72,0.00,SCT,,0.00,468.0,WeatherDisplay:10.37,2013-06-01 10:42:00,
2013-06-01 11:48:00,55.7,46.4,30.22,NW,313,9.2,9.2,71,0.00,SCT,,0.00,632.0,WeatherDisplay:10.37,2013-06-01 10:48:00,
2013-06-01 11:53:00,56.5,47.2,30.22,SW,229,6.9,6.9,71,0.00,FEW,,0.00,676.0,WeatherDisplay:10.37,2013-06-01 10:53:00,
2013-06-01 11:58:00,56.5,47.2,30.22,North,359,5.8,5.8,71,0.00,SCT,,0.00,561.0,WeatherDisplay:10.37,2013-06-01 10:58:00,
2013-06-01 12:03:00,57.0,47.7,30.21,SW,229,8.0,8.0,71,0.00,FEW,,0.00,973.0,WeatherDisplay:10.37,2013-06-01 11:03:00,
2013-06-01 12:08:00,58.0,48.3,30.21,North,357,2.3,3.4,70,0.00,CLR,,0.00,933.0,WeatherDisplay:10.37,2013-06-01 11:08:00,
2013-06-01 12:14:00,58.1,47.6,30.21,North,357,10.4,10.4,68,0.00,SCT,,0.00,589.0,WeatherDisplay:10.37,2013-06-01 11:14:00,
2013-06-01 12:19:00,57.8,47.7,30.21,North,357,3.5,3.5,69,0.00,SCT,,0.00,632.0,WeatherDisplay:10.37,2013-06-01 11:19:00,
2013-06-01 12:24:00,57.8,47.7,30.21,North,357,6.9,6.9,69,0.00,SCT,,0.00,632.0,WeatherDisplay:10.37,2013-06-01 11:24:00,
2013-06-01 12:29:00,57.6,47.5,30.22,NW,312,5.8,5.8,69,0.00,BKN,,0.00,452.0,WeatherDisplay:10.37,2013-06-01 11:29:00,
2013-06-01 12:34:00,57.0,47.3,30.22,NNW,342,10.4,10.4,70,0.00,BKN,,0.00,405.0,WeatherDisplay:10.37,2013-06-01 11:34:00,
2013-06-01 12:39:00,56.6,47.7,30.22,NNW,335,6.0,6.0,72,0.00,SCT,,0.00,526.0,WeatherDisplay:10.37,2013-06-01 11:39:00,
2013-06-01 12:44:00,56.2,48.0,30.22,WSW,239,12.7,12.7,74,0.00,SCT,,0.00,595.0,WeatherDisplay:10.37,2013-06-01 11:44:00,
2013-06-01 12:49:00,56.3,48.5,30.22,North,356,6.9,6.9,75,0.00,SCT,,0.00,575.0,WeatherDisplay:10.37,2013-06-01 11:49:00,
2013-06-01 12:54:00,57.2,49.0,30.22,NNW,343,10.4,10.4,74,0.00,FEW,,0.00,718.0,WeatherDisplay:10.37,2013-06-01 11:54:00,
2013-06-01 12:59:00,57.5,48.2,30.22,North,357,8.1,8.1,71,0.00,FEW,,0.00,936.0,WeatherDisplay:10.37,2013-06-01 11:59:00,
2013-06-01 13:05:00,58.3,49.3,30.22,North,356,11.0,11.0,72,0.00,BKN,,0.00,500.0,WeatherDisplay:10.37,2013-06-01 12:05:00,
2013-06-01 13:10:00,57.6,49.7,30.22,North,357,5.8,5.8,75,0.00,BKN,,0.00,480.0,WeatherDisplay:10.37,2013-06-01 12:10:00,
2013-06-01 13:15:00,57.5,48.9,30.22,North,357,9.2,9.2,73,0.00,FEW,,0.00,816.0,WeatherDisplay:10.37,2013-06-01 12:15:00,
2013-06-01 13:20:00,56.7,48.5,30.22,WNW,284,4.6,4.6,74,0.00,SCT,,0.00,538.0,WeatherDisplay:10.37,2013-06-01 12:20:00,
2013-06-01 13:25:00,56.0,48.2,30.22,NNW,333,11.5,11.5,75,0.00,SCT,,0.00,544.0,WeatherDisplay:10.37,2013-06-01 12:25:00,
2013-06-01 13:31:00,55.6,48.2,30.22,North,356,8.1,8.1,76,0.00,BKN,,0.00,463.0,WeatherDisplay:10.37,2013-06-01 12:31:00,
2013-06-01 13:36:00,55.3,48.2,30.22,North,357,8.1,8.1,77,0.00,BKN,,0.00,366.0,WeatherDisplay:10.37,2013-06-01 12:36:00,
2013-06-01 13:41:00,55.1,48.4,30.23,North,357,12.7,12.7,78,0.00,BKN,,0.00,399.0,WeatherDisplay:10.37,2013-06-01 12:41:00,
2013-06-01 13:46:00,54.2,48.5,30.23,North,0,8.1,8.1,81,0.00,OVC,,0.00,283.0,WeatherDisplay:10.37,2013-06-01 12:46:00,
2013-06-01 13:51:00,53.6,49.5,30.23,North,0,11.5,11.5,86,0.00,BKN,,0.00,382.0,WeatherDisplay:10.37,2013-06-01 12:51:00,
2013-06-01 13:56:00,53.2,50.3,30.23,NNW,330,8.1,8.1,90,0.00,OVC,,0.00,225.0,WeatherDisplay:10.37,2013-06-01 12:56:00,
2013-06-01 14:01:00,52.9,50.6,30.23,NNW,340,3.5,3.5,92,0.00,OVC,,0.00,287.0,WeatherDisplay:10.37,2013-06-01 13:01:00,
2013-06-01 14:06:00,52.5,50.5,30.23,SW,232,6.9,6.9,93,0.00,OVC,,0.00,243.0,WeatherDisplay:10.37,2013-06-01 13:06:00,
2013-06-01 14:11:00,52.5,50.8,30.23,SW,227,10.4,10.4,94,0.00,OVC,,0.00,301.0,WeatherDisplay:10.37,2013-06-01 13:11:00,
2013-06-01 14:16:00,52.6,50.9,30.23,North,357,5.8,5.8,94,0.00,OVC,,0.00,361.0,WeatherDisplay:10.37,2013-06-01 13:16:00,
2013-06-01 14:21:00,52.3,50.3,30.23,SW,234,5.8,5.8,93,0.00,OVC,,0.00,223.0,WeatherDisplay:10.37,2013-06-01 13:21:00,
2013-06-01 14:27:00,52.6,50.3,30.23,NNW,347,6.9,6.9,92,0.00,OVC,,0.00,324.0,WeatherDisplay:10.37,2013-06-01 13:27:00,
2013-06-01 14:32:00,52.9,50.0,30.23,NW,313,6.9,6.9,90,0.00,OVC,,0.00,187.0,WeatherDisplay:10.37,2013-06-01 13:32:00,
2013-06-01 14:37:00,52.6,49.4,30.23,SW,233,11.5,11.5,89,0.00,OVC,,0.00,267.0,WeatherDisplay:10.37,2013-06-01 13:37:00,
2013-06-01 14:42:00,53.2,50.3,30.23,SW,226,10.4,10.4,90,0.00,BKN,,0.00,422.0,WeatherDisplay:10.37,2013-06-01 13:42:00,
2013-06-01 14:47:00,53.3,49.8,30.23,NW,325,10.4,10.4,88,0.00,OVC,,0.00,290.0,WeatherDisplay:10.37,2013-06-01 13:47:00,
2013-06-01 14:52:00,53.2,49.7,30.23,SW,224,8.1,8.1,88,0.00,OVC,,0.00,229.0,WeatherDisplay:10.37,2013-06-01 13:52:00,
2013-06-01 14:57:00,53.1,49.6,30.23,North,352,6.9,6.9,88,0.00,OVC,,0.00,72.0,WeatherDisplay:10.37,2013-06-01 13:57:00,
2013-06-01 15:02:00,52.9,49.7,30.23,North,350,8.1,8.1,89,0.01,RA,,0.01,183.0,WeatherDisplay:10.37,2013-06-01 14:02:00,
2013-06-01 15:08:00,52.9,50.3,30.23,NW,315,6.9,6.9,91,0.01,RA,,0.01,232.0,WeatherDisplay:10.37,2013-06-01 14:08:00,
2013-06-01 15:13:00,52.8,50.5,30.23,North,349,6.9,6.9,92,0.01,OVC,,0.01,266.0,WeatherDisplay:10.37,2013-06-01 14:13:00,
2013-06-01 15:18:00,52.6,50.6,30.23,NNW,330,11.5,11.5,93,0.03,RA,,0.03,127.0,WeatherDisplay:10.37,2013-06-01 14:18:00,
2013-06-01 15:23:00,52.8,51.1,30.23,North,0,3.5,3.5,94,0.03,RA,,0.03,187.0,WeatherDisplay:10.37,2013-06-01 14:23:00,
2013-06-01 15:28:00,52.3,50.9,30.23,North,354,5.8,5.8,95,0.04,RA,,0.04,315.0,WeatherDisplay:10.37,2013-06-01 14:28:00,
2013-06-01 15:33:00,52.5,51.4,30.23,North,349,4.6,4.6,96,0.04,RA,,0.04,282.0,WeatherDisplay:10.37,2013-06-01 14:33:00,
2013-06-01 15:38:00,52.6,51.5,30.23,WSW,237,3.5,3.5,96,0.04,OVC,,0.04,290.0,WeatherDisplay:10.37,2013-06-01 14:38:00,
2013-06-01 15:43:00,54.1,53.3,30.23,NNW,332,6.9,6.9,97,0.04,OVC,,0.04,322.0,WeatherDisplay:10.37,2013-06-01 14:43:00,
2013-06-01 15:48:00,53.5,51.8,30.22,NW,325,8.1,8.1,94,0.04,OVC,,0.04,201.0,WeatherDisplay:10.37,2013-06-01 14:48:00,
2013-06-01 15:54:00,53.3,51.3,30.22,SW,223,6.9,6.9,93,0.04,BKN,,0.04,377.0,WeatherDisplay:10.37,2013-06-01 14:54:00,
2013-06-01 15:59:00,53.5,51.2,30.22,NNW,332,5.8,5.8,92,0.04,OVC,,0.04,120.0,WeatherDisplay:10.37,2013-06-01 14:59:00,
2013-06-01 16:04:00,53.3,50.7,30.23,NNW,337,11.5,11.5,91,0.04,RA,,0.05,165.0,WeatherDisplay:10.37,2013-06-01 15:04:00,
2013-06-01 16:09:00,53.1,50.5,30.23,NNW,343,10.4,10.4,91,0.04,RA,,0.05,188.0,WeatherDisplay:10.37,2013-06-01 15:09:00,
2013-06-01 16:14:00,52.9,50.0,30.23,NNW,336,11.5,11.5,90,0.03,BKN,,0.05,311.0,WeatherDisplay:10.37,2013-06-01 15:14:00,
2013-06-01 16:20:00,53.8,50.3,30.23,North,349,11.5,11.5,88,0.02,OVC,,0.05,287.0,WeatherDisplay:10.37,2013-06-01 15:20:00,
2013-06-01 16:25:00,55.1,51.0,30.23,NNW,328,5.8,5.8,86,0.02,CLR,,0.05,899.0,WeatherDisplay:10.37,2013-06-01 15:25:00,
2013-06-01 16:30:00,55.4,49.7,30.23,NNW,337,11.5,11.5,81,0.01,FEW,,0.05,602.0,WeatherDisplay:10.37,2013-06-01 15:30:00,
2013-06-01 16:35:00,55.6,49.5,30.23,NNW,337,10.4,10.4,80,0.01,FEW,,0.05,602.0,WeatherDisplay:10.37,2013-06-01 15:35:00,
2013-06-01 16:40:00,55.6,49.5,30.23,North,0,5.8,5.8,80,0.01,BKN,,0.05,370.0,WeatherDisplay:10.37,2013-06-01 15:40:00,
2013-06-01 16:45:00,55.6,49.2,30.23,NNW,347,10.0,10.0,79,0.01,SCT,,0.05,391.0,WeatherDisplay:10.37,2013-06-01 15:45:00,
2013-06-01 16:50:00,55.9,48.1,30.23,NNW,333,11.5,11.5,75,0.01,CLR,,0.05,699.0,WeatherDisplay:10.37,2013-06-01 15:50:00,
2013-06-01 16:55:00,56.2,48.7,30.23,NNW,329,13.0,13.0,76,0.01,FEW,,0.05,621.0,WeatherDisplay:10.37,2013-06-01 15:55:00,
2013-06-01 17:00:00,56.0,47.5,30.23,NNW,344,10.4,10.4,73,0.00,CLR,,0.05,662.0,WeatherDisplay:10.37,2013-06-01 16:00:00,
2013-06-01 17:06:00,56.5,48.3,30.23,NNW,346,10.4,10.4,74,0.00,CLR,,0.05,625.0,WeatherDisplay:10.37,2013-06-01 16:06:00,
2013-06-01 17:11:00,56.9,48.3,30.23,NNW,344,9.2,9.2,73,0.00,CLR,,0.05,667.0,WeatherDisplay:10.37,2013-06-01 16:11:00,
2013-06-01 17:16:00,56.9,47.6,30.23,NW,326,8.1,8.1,71,0.00,CLR,,0.05,648.0,WeatherDisplay:10.37,2013-06-01 16:16:00,
2013-06-01 17:21:00,56.7,46.6,30.24,NNW,342,11.5,11.5,69,0.00,CLR,,0.05,218.0,WeatherDisplay:10.37,2013-06-01 16:21:00,
2013-06-01 17:26:00,55.6,46.3,30.24,NNW,339,11.5,11.5,71,0.00,BKN,,0.05,157.0,WeatherDisplay:10.37,2013-06-01 16:26:00,
2013-06-01 17:31:00,54.5,44.9,30.24,NNW,336,6.9,6.9,70,0.00,OVC,,0.05,162.0,WeatherDisplay:10.37,2013-06-01 16:31:00,
2013-06-01 17:36:00,55.0,44.6,30.24,NNW,329,11.5,11.5,68,0.00,OVC,,0.05,114.0,WeatherDisplay:10.37,2013-06-01 16:36:00,
2013-06-01 17:41:00,54.7,43.2,30.24,NNW,335,11.5,11.5,65,0.00,OVC,,0.05,556.0,WeatherDisplay:10.37,2013-06-01 16:41:00,
2013-06-01 17:46:00,55.4,41.3,30.24,NNW,339,16.1,16.1,59,0.00,CLR,,0.05,545.0,WeatherDisplay:10.37,2013-06-01 16:46:00,
2013-06-01 17:51:00,55.4,41.7,30.24,NNW,347,11.5,11.5,60,0.00,CLR,,0.05,143.0,WeatherDisplay:10.37,2013-06-01 16:51:00,
2013-06-01 17:56:00,55.0,42.6,30.24,South,174,8.1,8.1,63,0.00,BKN,,0.05,215.0,WeatherDisplay:10.37,2013-06-01 16:56:00,
2013-06-01 18:02:00,55.1,41.0,30.24,NNW,335,19.6,19.6,59,0.00,CLR,,0.05,524.0,WeatherDisplay:10.37,2013-06-01 17:02:00,
2013-06-01 18:07:00,55.7,42.9,30.24,North,354,11.0,11.0,62,0.00,CLR,,0.05,524.0,WeatherDisplay:10.37,2013-06-01 17:07:00,
2013-06-01 18:12:00,55.4,41.7,30.24,SW,233,13.8,13.8,60,0.00,OVC,,0.05,135.0,WeatherDisplay:10.37,2013-06-01 17:12:00,
2013-06-01 18:17:00,55.9,43.1,30.24,North,359,11.5,11.5,62,0.00,CLR,,0.05,510.0,WeatherDisplay:10.37,2013-06-01 17:17:00,
2013-06-01 18:22:00,56.3,43.0,30.24,NNW,343,3.5,3.5,61,0.00,CLR,,0.05,456.0,WeatherDisplay:10.37,2013-06-01 17:22:00,
2013-06-01 18:27:00,56.6,43.7,30.25,WNW,298,6.9,6.9,62,0.00,CLR,,0.05,456.0,WeatherDisplay:10.37,2013-06-01 17:27:00,
2013-06-01 18:32:00,55.9,41.8,30.25,NNW,343,6.9,6.9,59,0.00,OVC,,0.05,153.0,WeatherDisplay:10.37,2013-06-01 17:32:00,
2013-06-01 18:37:00,54.7,41.5,30.25,NNW,336,16.1,16.1,61,0.00,OVC,,0.05,111.0,WeatherDisplay:10.37,2013-06-01 17:37:00,
2013-06-01 18:42:00,53.9,41.6,30.25,NNW,342,9.2,9.2,63,0.00,OVC,,0.05,125.0,WeatherDisplay:10.37,2013-06-01 17:42:00,
2013-06-01 18:48:00,54.7,41.9,30.25,NNW,330,11.0,11.0,62,0.00,CLR,,0.05,387.0,WeatherDisplay:10.37,2013-06-01 17:48:00,
2013-06-01 18:53:00,55.3,42.5,30.26,NW,325,11.5,11.5,62,0.00,CLR,,0.05,445.0,WeatherDisplay:10.37,2013-06-01 17:53:00,
2013-06-01 18:58:00,55.3,42.9,30.25,NNW,342,17.3,17.3,63,0.00,CLR,,0.05,396.0,WeatherDisplay:10.37,2013-06-01 17:58:00,
2013-06-01 19:03:00,54.7,41.9,30.26,NNW,333,12.7,12.7,62,0.00,OVC,,0.05,132.0,WeatherDisplay:10.37,2013-06-01 18:03:00,
2013-06-01 19:08:00,54.4,42.9,30.26,NW,305,10.4,10.4,65,0.00,BKN,,0.05,143.0,WeatherDisplay:10.37,2013-06-01 18:08:00,
2013-06-01 19:13:00,54.5,43.4,30.26,NNW,333,11.5,11.5,66,0.00,CLR,,0.05,401.0,WeatherDisplay:10.37,2013-06-01 18:13:00,
2013-06-01 19:18:00,54.7,43.6,30.26,NW,316,6.9,6.9,66,0.00,OVC,,0.05,63.0,WeatherDisplay:10.37,2013-06-01 18:18:00,
2013-06-01 19:23:00,54.1,43.4,30.26,NNW,340,11.5,11.5,67,0.00,OVC,,0.05,93.0,WeatherDisplay:10.37,2013-06-01 18:23:00,
2013-06-01 19:29:00,53.9,43.6,30.26,NW,312,6.9,6.9,68,0.00,BKN,,0.05,128.0,WeatherDisplay:10.37,2013-06-01 18:29:00,
2013-06-01 19:34:00,53.5,42.8,30.26,NW,309,12.7,12.7,67,0.00,OVC,,0.05,91.0,WeatherDisplay:10.37,2013-06-01 18:34:00,
2013-06-01 19:39:00,53.2,42.9,30.26,North,357,6.9,6.9,68,0.00,BKN,,0.05,141.0,WeatherDisplay:10.37,2013-06-01 18:39:00,
2013-06-01 19:44:00,53.5,43.2,30.26,NW,313,9.0,9.0,68,0.00,CLR,,0.05,280.0,WeatherDisplay:10.37,2013-06-01 18:44:00,
2013-06-01 19:49:00,53.3,42.2,30.26,North,357,12.0,12.0,66,0.00,OVC,,0.05,150.0,WeatherDisplay:10.37,2013-06-01 18:49:00,
2013-06-01 19:54:00,53.3,41.8,30.26,NW,308,8.1,8.1,65,0.00,CLR,,0.05,241.0,WeatherDisplay:10.37,2013-06-01 18:54:00,
2013-06-01 19:59:00,53.6,42.1,30.26,North,357,6.9,6.9,65,0.00,FEW,,0.05,213.0,WeatherDisplay:10.37,2013-06-01 18:59:00,
2013-06-01 20:05:00,53.6,41.7,30.26,NW,325,4.6,4.6,64,0.00,FEW,,0.05,181.0,WeatherDisplay:10.37,2013-06-01 19:05:00,
2013-06-01 20:10:00,53.6,41.3,30.27,West,280,10.4,10.4,63,0.00,FEW,,0.05,179.0,WeatherDisplay:10.37,2013-06-01 19:10:00,
2013-06-01 20:15:00,53.5,41.2,30.27,NW,315,3.0,12.0,63,0.00,CLR,,0.05,183.0,WeatherDisplay:10.37,2013-06-01 19:15:00,
2013-06-01 20:20:00,53.8,41.9,30.27,NNW,337,7.0,7.0,64,0.00,FEW,,0.05,137.0,WeatherDisplay:10.37,2013-06-01 19:20:00,
2013-06-01 20:25:00,53.6,41.7,30.27,WNW,285,11.5,11.5,64,0.00,SCT,,0.05,123.0,WeatherDisplay:10.37,2013-06-01 19:25:00,
2013-06-01 20:30:00,53.1,41.6,30.27,NW,311,5.8,5.8,65,0.00,SCT,,0.05,113.0,WeatherDisplay:10.37,2013-06-01 19:30:00,
2013-06-01 20:35:00,52.5,41.9,30.27,NW,325,5.8,5.8,67,0.00,SCT,,0.05,102.0,WeatherDisplay:10.37,2013-06-01 19:35:00,
2013-06-01 20:40:00,51.9,41.7,30.27,NW,322,3.5,3.5,68,0.00,SCT,,0.05,86.0,WeatherDisplay:10.37,2013-06-01 19:40:00,
2013-06-01 20:46:00,51.4,41.9,30.27,NW,318,11.5,11.5,70,0.00,SCT,,0.05,83.0,WeatherDisplay:10.37,2013-06-01 19:46:00,
2013-06-01 20:51:00,51.0,41.9,30.27,NNW,344,3.5,3.5,71,0.00,SCT,,0.05,72.0,WeatherDisplay:10.37,2013-06-01 19:51:00,
2013-06-01 20:56:00,50.5,41.8,30.27,SW,222,6.9,6.9,72,0.00,OVC,,0.05,33.0,WeatherDisplay:10.37,2013-06-01 19:56:00,
2013-06-01 21:01:00,50.2,41.5,30.28,WNW,302,11.5,11.5,72,0.00,OVC,,0.05,26.0,WeatherDisplay:10.37,2013-06-01 20:01:00,
2013-06-01 21:06:00,49.9,41.6,30.28,NW,312,5.8,5.8,73,0.00,OVC,,0.05,23.0,WeatherDisplay:10.37,2013-06-01 20:06:00,
2013-06-01 21:11:00,49.8,41.8,30.28,NW,305,4.6,4.6,74,0.00,OVC,,0.05,23.0,WeatherDisplay:10.37,2013-06-01 20:11:00,
2013-06-01 21:16:00,49.5,41.6,30.28,NNW,333,4.6,4.6,74,0.00,OVC,,0.05,21.0,WeatherDisplay:10.37,2013-06-01 20:16:00,
2013-06-01 21:21:00,49.4,41.5,30.29,WNW,296,3.5,3.5,74,0.00,OVC,,0.05,19.0,WeatherDisplay:10.37,2013-06-01 20:21:00,
2013-06-01 21:27:00,49.1,41.5,30.29,WSW,239,3.5,3.5,75,0.00,OVC,,0.05,16.0,WeatherDisplay:10.37,2013-06-01 20:27:00,
2013-06-01 21:32:00,48.9,41.3,30.29,WNW,289,3.5,3.5,75,0.00,OVC,,0.05,14.0,WeatherDisplay:10.37,2013-06-01 20:32:00,
2013-06-01 21:37:00,48.6,41.4,30.29,NW,309,3.0,3.0,76,0.00,OVC,,0.05,12.0,WeatherDisplay:10.37,2013-06-01 20:37:00,
2013-06-01 21:42:00,48.5,41.3,30.29,WNW,295,3.5,3.5,76,0.00,OVC,,0.05,11.0,WeatherDisplay:10.37,2013-06-01 20:42:00,
2013-06-01 21:47:00,48.2,41.0,30.29,WNW,296,2.3,2.3,76,0.00,OVC,,0.05,9.0,WeatherDisplay:10.37,2013-06-01 20:47:00,
2013-06-01 21:52:00,48.0,41.1,30.29,WNW,282,4.0,4.0,77,0.00,OVC,,0.05,7.0,WeatherDisplay:10.37,2013-06-01 20:52:00,
2013-06-01 21:57:00,47.7,40.8,30.29,WNW,285,2.3,0.0,77,0.00,OVC,,0.05,5.0,WeatherDisplay:10.37,2013-06-01 20:57:00,
2013-06-01 22:02:00,47.4,40.6,30.30,NW,320,3.5,3.5,77,0.00,CLR,,0.05,0.0,WeatherDisplay:10.37,2013-06-01 21:02:00,
2013-06-01 22:08:00,47.1,40.3,30.30,NW,304,3.5,3.5,77,0.00,CLR,,0.05,5.0,WeatherDisplay:10.37,2013-06-01 21:08:00,
2013-06-01 22:13:00,47.0,40.2,30.30,WNW,302,3.5,3.5,77,0.00,CLR,,0.05,0.0,WeatherDisplay:10.37,2013-06-01 21:13:00,
2013-06-01 22:18:00,46.8,40.3,30.30,NW,319,4.0,4.0,78,0.00,CLR,,0.05,0.0,WeatherDisplay:10.37,2013-06-01 21:18:00,
2013-06-01 22:23:00,46.7,40.2,30.30,WNW,294,3.5,3.5,78,0.00,CLR,,0.05,0.0,WeatherDisplay:10.37,2013-06-01 21:23:00,
2013-06-01 22:28:00,46.5,40.0,30.31,West,281,0.0,0.0,78,0.00,CLR,,0.05,0.0,WeatherDisplay:10.37,2013-06-01 21:28:00,
2013-06-01 22:33:00,46.2,39.7,30.31,WNW,294,3.5,3.5,78,0.00,CLR,,0.05,0.0,WeatherDisplay:10.37,2013-06-01 21:33:00,
2013-06-01 22:38:00,46.1,39.6,30.31,WNW,291,3.5,3.5,78,0.00,CLR,,0.05,0.0,WeatherDisplay:10.37,2013-06-01 21:38:00,
2013-06-01 22:43:00,46.1,39.9,30.31,NW,319,1.2,0.0,79,0.00,CLR,,0.05,0.0,WeatherDisplay:10.37,2013-06-01 21:43:00,
2013-06-01 22:48:00,46.0,39.9,30.31,NW,318,3.0,3.0,79,0.00,CLR,,0.05,0.0,WeatherDisplay:10.37,2013-06-01 21:48:00,
2013-06-01 22:53:00,45.8,39.7,30.31,NW,315,0.0,0.3,79,0.00,CLR,,0.05,0.0,WeatherDisplay:10.37,2013-06-01 21:53:00,
2013-06-01 22:58:00,45.7,39.9,30.31,NW,318,3.0,3.0,80,0.00,CLR,,0.05,0.0,WeatherDisplay:10.37,2013-06-01 21:58:00,
2013-06-01 23:03:00,45.5,39.7,30.31,NW,323,3.5,3.5,80,0.00,CLR,,0.05,0.0,WeatherDisplay:10.37,2013-06-01 22:03:00,
2013-06-01 23:08:00,45.5,40.0,30.31,NW,323,3.5,3.5,81,0.00,CLR,,0.05,0.0,WeatherDisplay:10.37,2013-06-01 22:08:00,
2013-06-01 23:13:00,45.2,40.0,30.31,NW,326,3.5,3.5,82,0.00,CLR,,0.05,0.0,WeatherDisplay:10.37,2013-06-01 22:13:00,
2013-06-01 23:19:00,44.9,39.7,30.31,NNW,329,2.3,2.3,82,0.00,CLR,,0.05,0.0,WeatherDisplay:10.37,2013-06-01 22:19:00,
2013-06-01 23:24:00,44.6,39.8,30.31,NW,323,2.0,2.0,83,0.00,CLR,,0.05,0.0,WeatherDisplay:10.37,2013-06-01 22:24:00,
2013-06-01 23:29:00,44.6,40.1,30.31,NW,316,3.5,3.5,84,0.00,CLR,,0.05,0.0,WeatherDisplay:10.37,2013-06-01 22:29:00,
2013-06-01 23:34:00,44.6,40.1,30.31,NW,308,2.3,2.3,84,0.00,CLR,,0.05,0.0,WeatherDisplay:10.37,2013-06-01 22:34:00,
2013-06-01 23:39:00,44.6,40.4,30.32,WNW,295,2.3,2.3,85,0.00,CLR,,0.05,0.0,WeatherDisplay:10.37,2013-06-01 22:39:00,
2013-06-01 23:45:00,44.6,40.4,30.32,NW,304,2.0,2.0,85,0.00,CLR,,0.05,0.0,WeatherDisplay:10.37,2013-06-01 22:45:00,
2013-06-01 23:50:00,44.6,40.4,30.32,NW,308,3.5,3.5,85,0.00,CLR,,0.05,0.0,WeatherDisplay:10.37,2013-06-01 22:50:00,
2013-06-01 23:55:00,44.6,40.4,30.32,NW,308,3.5,3.5,85,0.00,CLR,,0.05,0.0,WeatherDisplay:10.37,2013-06-01 22:55:00,